Left ArrowRight Arrow

53.6, 11.35

Hourly Observations for June 21, 2024

Temp ( °F °C ) Dew Point ( °F °C ) Humidity (%) Winds ( mph kmh ) Pressure ( in mb ) Visibility ( mi km ) Precip ( " mm )
12:20 am 00:20 Mostly Clear 61 16 55 13 82 82 E 3 6 30.06 1018 6 10 0.00 0.00
12:50 am 00:50 Mostly Clear 61 16 55 13 82 82 ENE 5 7 30.06 1018 6 10 0.00 0.00
1:20 am 01:20 Mostly Clear 61 16 55 13 82 82 ENE 3 6 30.06 1018 6 10 0.00 0.00
1:50 am 01:50 Cloudy 61 16 54 12 77 77 E 3 6 30.06 1018 6 10 0.00 0.00
2:20 am 02:20 Cloudy 61 16 54 12 77 77 VRB 2 4 30.06 1018 6 10 0.00 0.00
2:50 am 02:50 Cloudy 59 15 54 12 82 82 NE 5 7 30.03 1017 6 10 0.00 0.00
3:20 am 03:20 Cloudy 59 15 54 12 82 82 VRB 2 4 30.03 1017 6 10 0.00 0.00
3:50 am 03:50 Cloudy 59 15 54 12 82 82 E 3 6 30.03 1017 6 10 0.00 0.00
4:20 am 04:20 Cloudy 59 15 54 12 82 82 ENE 3 6 30.03 1017 6 10 0.00 0.00
4:50 am 04:50 Mostly Sunny 59 15 54 12 82 82 ENE 5 7 30.00 1016 6 10 0.00 0.00
5:20 am 05:20 Mostly Sunny 59 15 54 12 82 82 NE 5 7 30.00 1016 6 10 0.00 0.00
5:50 am 05:50 Mostly Sunny 59 15 54 12 82 82 NE 5 7 30.00 1016 6 10 0.00 0.00
6:20 am 06:20 Mostly Sunny 61 16 54 12 77 77 ENE 5 7 30.00 1016 6 10 0.00 0.00
6:50 am 06:50 Cloudy 61 16 55 13 82 82 E 6 9 29.97 1015 6 10 0.00 0.00
7:20 am 07:20 Cloudy 61 16 54 12 77 77 E 6 9 29.97 1015 6 10 0.00 0.00
7:50 am 07:50 Cloudy 61 16 55 13 82 82 E 5 7 29.97 1015 6 10 0.00 0.00
8:20 am 08:20 Cloudy 63 17 55 13 77 77 NE 5 7 29.97 1015 6 10 0.00 0.00
8:50 am 08:50 Mostly Cloudy 63 17 55 13 77 77 E 6 9 29.97 1015 6 10 0.00 0.00
9:20 am 09:20 Cloudy 64 18 55 13 73 73 E 6 9 29.97 1015 6 10 0.00 0.00
9:50 am 09:50 Cloudy 64 18 57 14 77 77 E 8 13 29.97 1015 6 10 0.00 0.00
10:20 am 10:20 Cloudy 66 19 57 14 73 73 E 7 11 29.97 1015 6 10 0.00 0.00
10:50 am 10:50 Mostly Cloudy 68 20 59 15 73 73 E 8 13 29.94 1014 6 10 0.00 0.00
11:20 am 11:20 Mostly Cloudy 70 21 59 15 69 69 E 9 15 29.94 1014 6 10 0.00 0.00
11:50 am 11:50 Mostly Cloudy 70 21 59 15 69 69 E 7 11 29.94 1014 6 10 0.00 0.00
12:20 pm 12:20 Mostly Cloudy 72 22 61 16 69 69 E 7 11 29.94 1014 6 10 0.00 0.00
12:50 pm 12:50 Mostly Cloudy 73 23 61 16 65 65 E 8 13 29.91 1013 6 10 0.00 0.00
1:20 pm 13:20 Partly Cloudy 75 24 61 16 61 61 ESE 7 11 29.91 1013 6 10 0.00 0.00
1:50 pm 13:50 Mostly Sunny 77 25 61 16 57 57 ESE 7 11 29.88 1012 6 10 0.00 0.00
2:20 pm 14:20 Mostly Cloudy 75 24 63 17 65 65 ESE 6 9 29.88 1012 6 10 0.00 0.00
2:50 pm 14:50 Mostly Cloudy 75 24 63 17 65 65 SE 6 9 29.88 1012 6 10 0.00 0.00
3:20 pm 15:20 Mostly Sunny 73 23 63 17 69 69 SE 6 9 29.88 1012 6 10 0.00 0.00
3:50 pm 15:50 Mostly Cloudy with Light Rain 72 22 63 17 73 73 SSE 6 9 29.88 1012 6 10 0.00 0.00
4:20 pm 16:20 Mostly Cloudy with Light Rain 70 21 64 18 83 83 ESE 5 7 29.85 1011 6 10 0.00 0.00
4:50 pm 16:50 Mostly Cloudy with Light Rain 70 21 64 18 83 83 E 5 7 29.82 1010 6 10 0.00 0.00
5:20 pm 17:20 Mostly Cloudy with Light Rain 70 21 66 19 88 88 E 5 7 29.82 1010 6 10 0.00 0.00
5:50 pm 17:50 Mostly Cloudy 70 21 66 19 88 88 E 6 9 29.79 1009 6 10 0.00 0.00
6:20 pm 18:20 Cloudy with Rain 68 20 66 19 94 94 SE 3 6 29.79 1009 2 3 0.00 0.00
6:50 pm 18:50 Cloudy with Rain 68 20 66 19 94 94 SSE 7 11 29.79 1009 4 6 0.00 0.00
7:20 pm 19:20 Partly Cloudy with Light Rain 68 20 66 19 94 94 SSE 5 7 29.79 1009 4 7 0.00 0.00
7:50 pm 19:50 Sunny with Light Rain 68 20 66 19 94 94 VRB 2 4 29.76 1008 6 9 0.00 0.00
8:20 pm 20:20 Mostly Sunny 68 20 66 19 94 94 E 6 9 29.76 1008 6 9 0.00 0.00
8:50 pm 20:50 Partly Cloudy 68 20 66 19 94 94 VRB 2 4 29.76 1008 6 10 0.00 0.00
9:20 pm 21:20 Mostly Cloudy 68 20 66 19 94 94 ESE 5 7 29.73 1007 4 7 0.00 0.00
9:50 pm 21:50 Mostly Sunny 68 20 66 19 94 94 SE 3 6 29.73 1007 6 10 0.00 0.00
10:20 pm 22:20 Mostly Clear 68 20 66 19 94 94 SE 5 7 29.73 1007 6 10 0.00 0.00
10:50 pm 22:50 Mostly Clear 68 20 66 19 94 94 SE 5 7 29.70 1006 6 10 0.00 0.00
11:20 pm 23:20 Mostly Cloudy 66 19 66 19 100 100 SSE 5 7 29.73 1007 6 10 0.00 0.00
11:50 pm 23:50 Mostly Cloudy 66 19 66 19 100 100 S 3 6 29.73 1007 6 10 0.00 0.00

Powered by Vaisala Xweather